TimeEDT,TemperatureF,Dew PointF,Humidity,Sea Level PressureIn,VisibilityMPH,Wind Direction,Wind SpeedMPH,Gust SpeedMPH,PrecipitationIn,Events,Conditions,WindDirDegrees,DateUTC
12:15 AM,21.2,6.8,54,30.04,10.0,West,4.6,-,N/A,,Mostly Cloudy,260,2013-04-02 04:15:00
12:35 AM,19.4,6.8,58,30.03,10.0,West,4.6,-,N/A,,Scattered Clouds,270,2013-04-02 04:35:00
12:54 AM,17.6,6.8,63,30.03,10.0,West,4.6,-,N/A,,Scattered Clouds,280,2013-04-02 04:54:00
1:15 AM,17.6,6.8,63,30.04,10.0,West,3.5,-,N/A,,Mostly Cloudy,270,2013-04-02 05:15:00
1:34 AM,17.6,6.8,63,30.04,10.0,WNW,3.5,-,N/A,,Overcast,300,2013-04-02 05:34:00
1:54 AM,17.6,6.8,63,30.04,10.0,Calm,Calm,-,N/A,,Overcast,0,2013-04-02 05:54:00
2:15 AM,15.8,6.8,68,30.04,10.0,Calm,Calm,-,N/A,,Mostly Cloudy,0,2013-04-02 06:15:00
2:34 AM,15.8,6.8,68,30.04,10.0,West,5.8,-,N/A,,Mostly Cloudy,280,2013-04-02 06:34:00
2:55 AM,15.8,6.8,68,30.04,10.0,WNW,6.9,-,N/A,,Scattered Clouds,290,2013-04-02 06:55:00
3:15 AM,17.6,8.6,68,30.05,10.0,WNW,8.1,-,N/A,,Scattered Clouds,300,2013-04-02 07:15:00
3:34 AM,15.8,8.6,73,30.04,10.0,WNW,8.1,-,N/A,,Scattered Clouds,290,2013-04-02 07:34:00
3:55 AM,15.8,8.6,73,30.05,10.0,WNW,5.8,-,N/A,,Clear,290,2013-04-02 07:55:00
4:14 AM,15.8,8.6,73,30.05,7.0,WNW,4.6,-,N/A,Snow,Light Snow,290,2013-04-02 08:14:00
4:34 AM,15.8,8.6,73,30.04,10.0,West,5.8,-,N/A,,Scattered Clouds,270,2013-04-02 08:34:00
4:55 AM,15.8,8.6,73,30.04,10.0,West,8.1,-,N/A,,Clear,280,2013-04-02 08:55:00
5:14 AM,15.8,8.6,73,30.05,10.0,WNW,5.8,-,N/A,,Clear,300,2013-04-02 09:14:00
5:35 AM,14.0,8.6,79,30.05,10.0,WNW,6.9,-,N/A,,Clear,290,2013-04-02 09:35:00
5:55 AM,14.0,8.6,79,30.06,10.0,WNW,8.1,-,N/A,,Clear,290,2013-04-02 09:55:00
6:14 AM,15.8,10.4,79,30.06,10.0,WNW,8.1,-,N/A,,Clear,290,2013-04-02 10:14:00
6:35 AM,15.8,10.4,79,30.07,10.0,West,5.8,-,N/A,,Scattered Clouds,280,2013-04-02 10:35:00
6:54 AM,15.8,10.4,79,30.07,10.0,West,4.6,-,N/A,,Clear,280,2013-04-02 10:54:00
7:15 AM,15.8,10.4,79,30.08,10.0,West,6.9,-,N/A,,Clear,280,2013-04-02 11:15:00
7:35 AM,15.8,10.4,79,30.08,10.0,West,8.1,-,N/A,,Mostly Cloudy,280,2013-04-02 11:35:00
7:54 AM,15.8,10.4,79,30.09,10.0,WNW,9.2,-,N/A,,Mostly Cloudy,290,2013-04-02 11:54:00
8:15 AM,17.6,10.4,73,30.09,10.0,West,9.2,-,N/A,,Scattered Clouds,280,2013-04-02 12:15:00
8:34 AM,17.6,10.4,73,30.10,10.0,West,9.2,-,N/A,,Scattered Clouds,280,2013-04-02 12:34:00
8:54 AM,19.4,10.4,68,30.10,10.0,West,8.1,-,N/A,,Scattered Clouds,280,2013-04-02 12:54:00
9:15 AM,21.2,12.2,68,30.10,10.0,WNW,9.2,-,N/A,,Overcast,290,2013-04-02 13:15:00
9:34 AM,24.8,14.0,64,30.11,10.0,West,12.7,-,N/A,,Overcast,280,2013-04-02 13:34:00
9:55 AM,24.8,15.8,69,30.11,10.0,West,13.8,-,N/A,,Mostly Cloudy,280,2013-04-02 13:55:00
10:34 AM,26.6,15.8,64,30.11,10.0,West,13.8,23.0,N/A,,Overcast,280,2013-04-02 14:34:00
10:55 AM,26.6,10.4,51,30.12,10.0,NW,15.0,25.3,N/A,,Overcast,310,2013-04-02 14:55:00
11:14 AM,26.6,10.4,51,30.12,10.0,NW,19.6,25.3,N/A,,Overcast,310,2013-04-02 15:14:00
11:35 AM,28.4,10.4,47,30.13,10.0,NNW,18.4,27.6,N/A,,Mostly Cloudy,330,2013-04-02 15:35:00
11:55 AM,28.4,8.6,43,30.13,10.0,NNW,18.4,29.9,N/A,,Overcast,330,2013-04-02 15:55:00
12:14 PM,28.4,10.4,47,30.13,10.0,NW,19.6,29.9,N/A,,Overcast,320,2013-04-02 16:14:00
12:35 PM,28.4,10.4,47,30.14,10.0,WNW,18.4,23.0,N/A,,Overcast,300,2013-04-02 16:35:00
12:54 PM,28.4,10.4,47,30.14,10.0,WNW,17.3,24.2,N/A,,Overcast,300,2013-04-02 16:54:00
1:14 PM,28.4,10.4,47,30.14,10.0,NNW,15.0,23.0,N/A,,Overcast,340,2013-04-02 17:14:00
1:34 PM,28.4,10.4,47,30.14,10.0,NNW,13.8,23.0,N/A,,Overcast,340,2013-04-02 17:34:00
1:54 PM,28.4,10.4,47,30.14,10.0,NW,17.3,25.3,N/A,,Overcast,320,2013-04-02 17:54:00
2:15 PM,28.4,12.2,51,30.15,10.0,NW,13.8,23.0,N/A,,Overcast,310,2013-04-02 18:15:00
2:34 PM,28.4,12.2,51,30.15,10.0,NW,15.0,24.2,N/A,,Overcast,320,2013-04-02 18:34:00
2:55 PM,30.2,12.2,47,30.15,10.0,NNW,17.3,24.2,N/A,,Mostly Cloudy,330,2013-04-02 18:55:00
3:14 PM,30.2,8.6,40,30.15,10.0,NNW,12.7,25.3,N/A,,Scattered Clouds,340,2013-04-02 19:14:00
3:34 PM,30.2,8.6,40,30.15,10.0,NW,16.1,21.9,N/A,,Scattered Clouds,310,2013-04-02 19:34:00
3:55 PM,30.2,8.6,40,30.15,10.0,NW,17.3,-,N/A,,Scattered Clouds,310,2013-04-02 19:55:00
4:14 PM,30.2,10.4,44,30.15,10.0,WNW,15.0,21.9,N/A,,Scattered Clouds,300,2013-04-02 20:14:00
4:35 PM,30.2,10.4,44,30.15,10.0,NW,17.3,26.5,N/A,,Scattered Clouds,310,2013-04-02 20:35:00
4:55 PM,30.2,10.4,44,30.16,10.0,NW,19.6,-,N/A,,Scattered Clouds,320,2013-04-02 20:55:00
5:14 PM,30.2,10.4,44,30.16,10.0,NNW,15.0,21.9,N/A,,Clear,330,2013-04-02 21:14:00
5:35 PM,30.2,10.4,44,30.17,10.0,NNW,11.5,20.7,N/A,,Clear,330,2013-04-02 21:35:00
5:48 PM,30.2,10.4,44,30.17,10.0,NNW,11.5,24.2,N/A,,Clear,330,2013-04-02 21:48:00
6:20 PM,28.4,8.6,43,30.19,10.0,NW,17.3,26.5,N/A,,Clear,320,2013-04-02 22:20:00
6:35 PM,28.4,6.8,40,30.19,10.0,NNW,17.3,26.5,N/A,,Clear,330,2013-04-02 22:35:00
6:55 PM,28.4,6.8,40,30.19,10.0,NW,16.1,25.3,N/A,,Clear,320,2013-04-02 22:55:00
7:14 PM,28.4,8.6,43,30.20,10.0,NW,17.3,23.0,N/A,,Clear,320,2013-04-02 23:14:00
7:35 PM,26.6,8.6,47,30.21,10.0,NNW,17.3,23.0,N/A,,Clear,330,2013-04-02 23:35:00
7:54 PM,26.6,8.6,47,30.21,10.0,NNW,10.4,20.7,N/A,,Clear,340,2013-04-02 23:54:00
8:15 PM,26.6,8.6,47,30.22,10.0,NNW,11.5,16.1,N/A,,Clear,330,2013-04-03 00:15:00
8:35 PM,26.6,8.6,47,30.22,10.0,NNW,6.9,-,N/A,,Clear,340,2013-04-03 00:35:00
8:54 PM,24.8,8.6,50,30.22,10.0,NNW,8.1,-,N/A,,Clear,330,2013-04-03 00:54:00
9:15 PM,24.8,10.4,54,30.23,10.0,NW,5.8,-,N/A,,Clear,320,2013-04-03 01:15:00
9:34 PM,24.8,10.4,54,30.23,10.0,NNW,4.6,-,N/A,,Clear,340,2013-04-03 01:34:00
9:54 PM,24.8,10.4,54,30.23,10.0,NW,4.6,-,N/A,,Clear,310,2013-04-03 01:54:00
10:15 PM,23.0,10.4,59,30.23,10.0,NW,4.6,-,N/A,,Clear,310,2013-04-03 02:15:00
10:34 PM,21.2,10.4,63,30.24,10.0,WNW,4.6,-,N/A,,Clear,300,2013-04-03 02:34:00
10:55 PM,21.2,10.4,63,30.24,10.0,WNW,4.6,-,N/A,,Clear,300,2013-04-03 02:55:00
11:14 PM,21.2,10.4,63,30.24,10.0,WNW,4.6,-,N/A,,Clear,290,2013-04-03 03:14:00
11:34 PM,19.4,10.4,68,30.24,10.0,WNW,4.6,-,N/A,,Clear,290,2013-04-03 03:34:00
11:55 PM,21.2,10.4,63,30.24,10.0,West,3.5,-,N/A,,Clear,270,2013-04-03 03:55:00